Location: Six Mile Lake
(44.9000°N, 79.7170°W)
Time: 07:04:30
(UTC-04:00)

JY1SAT - Pass Details

Date: 02 July 2022
Orbit: 564 x 586 km, 97.6° (Epoch: 08 August)

Event Time Altitude Azimuth Distance (km) Brightness Sun altitude
Exits shadow 22:43:00 18° 165° (SSE) 1,462 ? -12.9°
Maximum altitude 22:46:03 88° 74° (ENE) 595 ? -13.3°
Drops below altitude 10° 22:50:14 10° 348° (NNW) 1,921 ? -13.7°
Sets 22:52:24 0° 348° (NNW) 2,824 ? -13.9°
